This is the latest recevied weather packets stored in our database for station/object AC4AG. If no packets are shown the sender has not sent any weather packets the latest 1 day(s).
| Time | Temp. | Humidity | Pressure | Rain* | Wind** | Luminosity | Snow |
|---|---|---|---|---|---|---|---|
| 1778086877 | 10.56° C | 99% | 1012.5 hPa | 0 mm | - | 73 W/m² | - |
| 1778086271 | 10.56° C | 99% | 1012.1 hPa | 1.27 mm | - | 108 W/m² | - |
| 1778085666 | 10.56° C | 99% | 1012.2 hPa | 0 mm | - | 143 W/m² | - |
| 1778085361 | 10.56° C | 99% | 1012.1 hPa | 0 mm | - | 110 W/m² | - |
| 1778084451 | 10.56° C | 99% | 1012.1 hPa | 0 mm | - | 137 W/m² | - |
| 1778084149 | 10.56° C | 99% | 1012.2 hPa | 0 mm | - | 107 W/m² | - |
| 1778083240 | 10.56° C | 99% | 1012.1 hPa | 0 mm | - | 92 W/m² | - |
| 1778081533 | 11.11° C | 99% | 1011.7 hPa | 0 mm | - | 91 W/m² | - |
| 1778080322 | 11.11° C | 99% | 1011.4 hPa | 1.78 mm | - | 59 W/m² | - |
| 1778080018 | 11.11° C | 99% | 1011.2 hPa | 0 mm | - | 59 W/m² | - |
| 1778076992 | 11.11° C | 99% | 1010.9 hPa | 0 mm | - | 49 W/m² | - |
| 1778076388 | 11.67° C | 99% | 1010.9 hPa | 0 mm | - | 29 W/m² | - |
| 1778076085 | 11.67° C | 99% | 1010.7 hPa | 0 mm | - | 26 W/m² | - |
| 1778075478 | 11.67° C | 99% | 1010.6 hPa | 0 mm | - | 37 W/m² | - |
| 1778073659 | 13.89° C | 99% | 1010.3 hPa | 1.27 mm | - | 23 W/m² | - |
| 1778071238 | 13.89° C | 99% | 1009.6 hPa | 6.1 mm | - | 5 W/m² | - |
| 1778070028 | 14.44° C | 99% | 1009.5 hPa | 1.27 mm | - | 7 W/m² | - |
| 1778068213 | 14.44° C | 99% | 1008.2 hPa | 6.1 mm | - | 14 W/m² | - |
| 1778064882 | 14.44° C | 99% | 1008.6 hPa | 4.32 mm | - | 1 W/m² | - |
| 1778062764 | 15° C | 99% | 1008.7 hPa | 7.11 mm | - | 0 W/m² | - |
| 1778062158 | 15° C | 99% | 1007.7 hPa | 6.6 mm | - | 0 W/m² | - |
| 1778061856 | 15° C | 99% | 1007.5 hPa | 4.83 mm | - | 0 W/m² | - |
| 1778061554 | 15° C | 99% | 1007.6 hPa | 10.16 mm | - | 0 W/m² | - |
| 1778060948 | 15° C | 99% | 1007.5 hPa | 13.72 mm | - | 0 W/m² | - |
| 1778060647 | 15° C | 99% | 1007.6 hPa | 22.86 mm | - | 0 W/m² | - |
* Rain latest hour (hover to see other rain measurements)
** Current wind speed in m/s (hover to see current wind gust speed)